Вернуться в каталог

TITAN 3C TRANSTAGE DEB

LostHEO
NORAD 28820·DEBRIS·🇺🇸 United States

Запущен Dec 21, 1965 с Cape Canaveral Space Force Station

Loading…

Ближайшие Пролёты (ближайшие 24 часа)

TLE

УстаревшееSource: Space-Track

Эпоха: Nov 8, 2025, 09:47 UTC

1 28820U 65108CH  25312.40773428  .00000518  00000-0  21085-2 0  9990
2 28820  26.5829 259.9790 6739192 180.9282 176.6448  2.84904157219257

Отслеживайте TITAN 3C TRANSTAGE DEB в реальном времени с AllMySat

Download on the App Store